Paris Le Bourget, France

11:24 AM CET on January 16, 2018 (GMT +0100)
Le Bourget

Weather History for LFPB - March, 2013

Change the Weather History Date:

Friday, March 29, 2013

  Actual Average Record
Temperature  
Mean Temperature 34 °F -  
Max Temperature 42 °F 58 °F 69 °F (1998)
Min Temperature 26 °F 42 °F 26 °F (2013)
Degree Days  
Heating Degree Days 31    
Moisture  
Dew Point 25 °F    
Average Humidity 66    
Maximum Humidity 93    
Minimum Humidity 49    
Precipitation  
Precipitation 0.00 in 0.06 in - ()
Sea Level Pressure  
Sea Level Pressure 29.77 in    
Wind  
Wind Speed 5 mph ()    
Max Wind Speed 12 mph    
Max Gust Speed -    
Visibility 4.4 miles    
Events      
Averages and records for this station are not official NWS values.
T = Trace of Precipitation, MM = Missing Value Source: Averaged Metar Reports

Daily Weather History Graph

Daily Weather History Graph

Search for Another Location

Airport or City:

Trip Planner

Search our weather history database for the weather conditions in past years. The results will help you decide how hot, cold, wet, or windy it might be!

Date:

Astronomy

Mar. 29, 2013 Rise Set
Actual Time 6:33 AM CET 7:16 PM CET
Civil Twilight 6:02 AM CET 7:48 PM CET
Nautical Twilight 5:24 AM CET 8:26 PM CET
Astronomical Twilight 4:44 AM CET 9:07 PM CET
Moon 10:16 PM CET (3/29) 7:18 AM CET (3/29)
Length of Visible Light 13h 46m
Length of Day
12h 42m
Waning Gibbous, 95% of the Moon is Illuminated
Mar 29
Waning Gibbous
Apr 3
Last Quarter
Apr 10
New
Apr 18
First Quarter
Apr 25
Full

Hourly Weather History & Observations

Time (CET) Temp. Windchill Dew Point Humidity Pressure Visibility Wind Dir Wind Speed Gust Speed Precip Events Conditions
12:00 AM 33.8 °F 27.7 °F 24.8 °F 70% 29.86 in 6.2 mi North 6.9 mph - N/A   Mostly Cloudy
12:30 AM 32.0 °F 28.7 °F 24.8 °F 75% 29.86 in 6.2 mi North 3.5 mph - N/A   Scattered Clouds
1:00 AM 32.0 °F 28.7 °F 24.8 °F 75% 29.86 in 6.2 mi NNW 3.5 mph - N/A   Mostly Cloudy
1:30 AM 32.0 °F 28.7 °F 24.8 °F 75% 29.86 in 6.2 mi Variable 3.5 mph - N/A   Mostly Cloudy
2:00 AM 30.2 °F - 24.8 °F 80% 29.86 in 5.6 mi Variable 2.3 mph - N/A   Mostly Cloudy
2:30 AM 30.2 °F - 24.8 °F 80% 29.86 in 5.6 mi Variable 1.2 mph - N/A   Mostly Cloudy
3:00 AM 30.2 °F - 24.8 °F 80% 29.83 in 5.6 mi Variable 2.3 mph - N/A   Mostly Cloudy
3:30 AM 30.2 °F - 24.8 °F 80% 29.83 in 5.0 mi North 2.3 mph - N/A   Partly Cloudy
4:00 AM 30.2 °F - 24.8 °F 80% 29.83 in 5.0 mi Calm Calm - N/A   Scattered Clouds
4:30 AM 30.2 °F - 24.8 °F 80% 29.83 in 4.3 mi North 2.3 mph - N/A   Partly Cloudy
5:00 AM 28.4 °F - 23.0 °F 80% 29.83 in 4.3 mi Calm Calm - N/A   Unknown
5:30 AM 28.4 °F - 23.0 °F 80% 29.83 in 3.7 mi Calm Calm - N/A   Unknown
6:00 AM 26.6 °F - 23.0 °F 86% 29.83 in 3.1 mi Calm Calm - N/A   Mist
6:30 AM 26.6 °F 22.6 °F 23.0 °F 86% 29.83 in 3.1 mi North 3.5 mph - N/A   Mist
7:00 AM 26.6 °F - 23.0 °F 86% 29.83 in 3.1 mi North 2.3 mph - N/A   Mist
7:30 AM 26.6 °F - 24.8 °F 93% 29.83 in 3.1 mi Calm Calm - N/A   Mist
8:00 AM 30.2 °F 26.7 °F 26.6 °F 86% 29.83 in 3.1 mi North 3.5 mph - N/A   Mist
8:30 AM 32.0 °F 27.5 °F 26.6 °F 80% 29.83 in 4.3 mi North 4.6 mph - N/A   Unknown
9:00 AM 33.8 °F 28.6 °F 26.6 °F 75% 29.80 in 5.0 mi North 5.8 mph - N/A   Partly Cloudy
9:30 AM 35.6 °F 29.2 °F 24.8 °F 65% 29.80 in 5.6 mi NE 8.1 mph - N/A   Partly Cloudy
10:00 AM 35.6 °F 29.2 °F 23.0 °F 60% 29.80 in 5.0 mi NE 8.1 mph - N/A   Scattered Clouds
10:30 AM 37.4 °F 31.4 °F 23.0 °F 56% 29.80 in 5.6 mi NNE 8.1 mph - N/A   Partly Cloudy
11:00 AM 37.4 °F 32.1 °F 23.0 °F 56% 29.80 in 5.6 mi NNE 6.9 mph - N/A   Partly Cloudy
11:30 AM 39.2 °F 34.2 °F 24.8 °F 56% 29.77 in 5.6 mi NNE 6.9 mph - N/A   Partly Cloudy
12:00 PM 39.2 °F 33.6 °F 23.0 °F 52% 29.77 in 5.0 mi ENE 8.1 mph - N/A   Partly Cloudy
12:30 PM 39.2 °F 34.2 °F 24.8 °F 56% 29.77 in 3.7 mi NE 6.9 mph - N/A   Mostly Cloudy
1:00 PM 41.0 °F 38.0 °F 23.0 °F 49% 29.77 in 5.0 mi North 4.6 mph - N/A   Mostly Cloudy
1:30 PM 41.0 °F 37.1 °F 23.0 °F 49% 29.74 in 5.0 mi Variable 5.8 mph - N/A   Scattered Clouds
2:00 PM 42.8 °F 38.6 °F 24.8 °F 49% 29.74 in 4.3 mi ENE 6.9 mph - N/A   Mostly Cloudy
2:30 PM 42.8 °F 38.0 °F 26.6 °F 53% 29.74 in 4.3 mi East 8.1 mph - N/A   Mostly Cloudy
3:00 PM 42.8 °F 38.6 °F 24.8 °F 49% 29.74 in 4.3 mi NE 6.9 mph - N/A   Mostly Cloudy
3:30 PM 42.8 °F 40.1 °F 24.8 °F 49% 29.74 in 4.3 mi North 4.6 mph - N/A   Mostly Cloudy
4:00 PM 42.8 °F 39.3 °F 24.8 °F 49% 29.71 in 3.7 mi ENE 5.8 mph - N/A   Scattered Clouds
4:30 PM 42.8 °F 37.5 °F 24.8 °F 49% 29.71 in 3.7 mi East 9.2 mph - N/A   Scattered Clouds
5:00 PM 42.8 °F 37.5 °F 24.8 °F 49% 29.71 in 3.7 mi East 9.2 mph - N/A   Mostly Cloudy
5:30 PM 42.8 °F 38.6 °F 24.8 °F 49% 29.68 in 3.7 mi ENE 6.9 mph - N/A   Mostly Cloudy
6:00 PM 41.0 °F 35.8 °F 24.8 °F 53% 29.68 in 3.7 mi ENE 8.1 mph - N/A   Mostly Cloudy
6:30 PM 39.2 °F 32.0 °F 24.8 °F 56% 29.68 in 3.1 mi NE 11.5 mph - N/A   Mostly Cloudy
7:00 PM 39.2 °F 33.6 °F 24.8 °F 56% 29.71 in 3.1 mi NE 8.1 mph - N/A   Mostly Cloudy
7:30 PM 37.4 °F 30.8 °F 24.8 °F 60% 29.71 in 3.1 mi NE 9.2 mph - N/A   Mist
8:00 PM 37.4 °F 30.3 °F 24.8 °F 60% 29.71 in 3.1 mi NE 10.4 mph - N/A   Mist
8:30 PM 37.4 °F 29.8 °F 24.8 °F 60% 29.71 in - NE 11.5 mph - N/A   Mist
9:00 PM 35.6 °F 28.6 °F 24.8 °F 65% 29.71 in 2.8 mi NE 9.2 mph - N/A   Overcast
9:30 PM 35.6 °F 28.6 °F 24.8 °F 65% 29.71 in - NE 9.2 mph - N/A   Overcast
10:00 PM 35.6 °F 28.0 °F 24.8 °F 65% 29.71 in - NE 10.4 mph - N/A   Overcast
10:30 PM 35.6 °F 29.2 °F 24.8 °F 65% 29.71 in - NNE 8.1 mph - N/A   Mist
11:00 PM 35.6 °F 29.2 °F 24.8 °F 65% 29.71 in - NE 8.1 mph - N/A   Mist
11:30 PM 35.6 °F 28.0 °F 24.8 °F 65% 29.68 in - NE 10.4 mph - N/A   Mist